KC4JIR Weather Reports


time (UTC)temp
F
wind
direction
speed
knots
gust
knots
rain 1hr
in
rain 24hr
in
rain mn
in
humidity
%
barometer
mb
20260906162903 90 330 0.0 0.0 0.00 0.00 0.00 66 1009.9
20260906162401 90 296 0.0 0.0 0.00 0.00 0.00 69 1009.9
20260906161857 90 119 0.0 0.0 0.00 0.00 0.00 68 1010.1
20260906161356 90 314 0.0 0.0 0.00 0.00 0.00 68 1010.0
20260906160855 90 308 0.0 0.0 0.00 0.00 0.00 67 1010.1
20260906160349 90 275 0.0 0.0 0.00 0.00 0.00 69 1010.1
20260906155847 89 290 0.0 0.0 0.00 0.00 0.00 69 1010.2
20260906155341 89 326 0.0 0.0 0.00 0.00 0.00 73 1010.1
20260906154838 88 304 0.0 0.0 0.00 0.00 0.00 72 1010.1
20260906154332 87 249 0.0 0.0 0.00 0.00 0.00 70 1010.2
20260906153831 87 297 0.0 0.0 0.00 0.00 0.00 71 1010.2
20260906153330 87 288 0.0 0.0 0.00 0.00 0.00 71 1010.2
20260906152825 87 273 0.0 0.0 0.00 0.00 0.00 72 1010.3
20260906152320 86 331 0.0 0.0 0.00 0.00 0.00 74 1010.2
20260906151820 86 302 0.0 0.0 0.00 0.00 0.00 80 1010.5
20260906151316 84 305 0.0 0.9 0.00 0.00 0.00 76 1010.4
20260906150811 84 305 0.0 0.0 0.00 0.00 0.00 79 1010.1
20260906150307 85 299 0.0 0.0 0.00 0.00 0.00 82 1010.1
20260906145805 85 310 0.0 0.0 0.00 0.00 0.00 76 1010.2
20260906145306 85 306 0.0 0.0 0.00 0.00 0.00 75 1010.1
20260906144759 85 317 0.0 0.9 0.00 0.00 0.00 75 1010.0
20260906144254 84 292 0.0 0.0 0.00 0.00 0.00 77 1010.0
20260906143754 82 316 0.0 0.0 0.00 0.00 0.00 80 1009.9
20260906143251 82 305 0.0 0.0 0.00 0.00 0.00 80 1010.3
20260906142750 82 300 0.0 0.0 0.00 0.00 0.00 82 1010.1
20260906142246 82 294 0.0 0.0 0.00 0.00 0.00 81 1010.3
20260906141744 82 302 0.0 0.0 0.00 0.00 0.00 83 1010.2
20260906141239 81 299 0.0 0.0 0.00 0.00 0.00 85 1010.2
20260906140738 81 298 0.0 0.0 0.00 0.00 0.00 84 1010.2
20260906140234 80 301 0.0 0.0 0.00 0.00 0.00 86 1010.1
20260906135730 80 302 0.0 0.0 0.00 0.00 0.00 84 1010.4
20260906135227 80 298 0.0 0.0 0.00 0.00 0.00 83 1010.3
20260906134722 80 298 0.0 0.0 0.00 0.00 0.00 85 1010.1
20260906134217 79 277 0.0 0.0 0.00 0.00 0.00 84 1010.2
20260906133713 79 298 0.0 0.0 0.00 0.00 0.00 87 1010.1
20260906133208 79 318 0.0 0.9 0.00 0.00 0.00 87 1010.3
20260906132703 78 302 0.0 0.0 0.00 0.00 0.00 88 1010.3
20260906132159 78 294 0.0 0.0 0.00 0.00 0.00 88 1010.4
20260906131654 78 298 0.0 0.0 0.00 0.00 0.00 90 1010.2
20260906131149 78 300 0.0 0.0 0.00 0.00 0.00 88 1010.5
20260906130644 78 280 0.0 0.0 0.00 0.00 0.00 88 1010.5
20260906130139 77 294 0.0 0.0 0.00 0.00 0.00 89 1010.4
20260906125637 77 298 0.0 0.0 0.00 0.00 0.00 90 1010.6
20260906125136 77 305 0.0 0.0 0.00 0.00 0.00 91 1010.5
20260906124632 76 298 0.0 0.0 0.00 0.00 0.00 90 1010.6
20260906124127 76 305 0.0 0.0 0.00 0.00 0.00 91 1010.7
20260906123626 76 302 0.0 0.0 0.00 0.00 0.00 92 1010.6
20260906123121 75 301 0.0 0.0 0.00 0.00 0.00 92 1010.7
20260906122620 75 298 0.0 0.0 0.00 0.00 0.00 95 1010.4
20260906122116 74 296 0.0 0.0 0.00 0.00 0.00 97 1010.4
20260906121612 74 296 0.0 0.0 0.00 0.00 0.00 97 1010.4
20260906121109 74 295 0.0 0.0 0.00 0.00 0.00 97 1010.4
20260906120604 74 294 0.0 0.0 0.00 0.00 0.00 97 1010.5
20260906120101 73 296 0.0 0.0 0.00 0.00 0.00 97 1010.2
20260906115601 73 298 0.0 0.0 0.00 0.00 0.00 98 1010.2
20260906115056 73 298 0.0 0.0 0.00 0.00 0.00 98 1010.1
20260906114550 73 298 0.0 0.0 0.00 0.00 0.00 98 1010.1
20260906114045 73 303 0.0 0.0 0.00 0.00 0.00 98 1010.1
20260906113544 73 299 0.0 0.0 0.00 0.00 0.00 98 1010.1
20260906113040 73 294 0.0 0.0 0.00 0.00 0.00 98 1009.8
20260906112534 73 298 0.0 0.0 0.00 0.00 0.00 98 1009.8
20260906112031 73 298 0.0 0.0 0.00 0.00 0.00 98 1009.7
20260906111530 73 302 0.0 0.0 0.00 0.00 0.00 99 1009.5
20260906111025 73 304 0.0 0.0 0.00 0.00 0.00 99 1009.6
20260906110520 72 298 0.0 0.0 0.00 0.00 0.00 99 1009.6
20260906110019 73 298 0.0 0.0 0.00 0.00 0.00 99 1009.4
20260906105515 73 296 0.0 0.0 0.00 0.00 0.00 98 1009.8
20260906105011 72 291 0.0 0.0 0.00 0.00 0.00 98 1009.3
20260906104509 73 293 0.0 0.0 0.00 0.00 0.00 98 1009.6
20260906104003 73 294 0.0 0.0 0.00 0.00 0.00 98 1009.5
20260906103502 73 301 0.0 0.0 0.00 0.00 0.00 98 1009.7
20260906102957 73 300 0.0 0.0 0.00 0.00 0.00 98 1009.6
20260906102457 73 299 0.0 0.0 0.00 0.00 0.00 98 1009.3
20260906101951 73 300 0.0 0.0 0.00 0.00 0.00 98 1009.2
20260906101446 73 296 0.0 0.0 0.00 0.00 0.00 98 1009.2
20260906100947 73 298 0.0 0.0 0.00 0.00 0.00 98 1009.4
20260906100442 73 295 0.0 0.0 0.00 0.00 0.00 97 1009.5
20260906095936 73 303 0.0 0.0 0.00 0.00 0.00 97 1009.3
20260906095431 73 311 0.0 0.0 0.00 0.00 0.00 97 1009.4
20260906094927 73 298 0.0 0.0 0.00 0.00 0.00 98 1009.6
20260906094420 73 301 0.0 0.0 0.00 0.00 0.00 98 1009.6
20260906093917 73 265 0.0 0.0 0.00 0.00 0.00 98 1009.2
20260906093413 73 299 0.0 0.0 0.00 0.00 0.00 98 1009.5
20260906092912 73 291 0.0 0.0 0.00 0.00 0.00 98 1009.5
20260906092407 73 300 0.0 0.0 0.00 0.00 0.00 98 1009.4
20260906091902 73 295 0.0 0.0 0.00 0.00 0.00 98 1009.3
20260906091358 73 289 0.0 0.0 0.00 0.00 0.00 98 1009.4
20260906090855 73 305 0.0 0.0 0.00 0.00 0.00 98 1009.2
20260906090354 73 300 0.0 0.0 0.00 0.00 0.00 98 1009.1
20260906085849 73 299 0.0 0.0 0.00 0.00 0.00 98 1009.3
20260906085348 73 294 0.0 0.0 0.00 0.00 0.00 97 1009.3
20260906084843 73 294 0.0 0.0 0.00 0.00 0.00 98 1009.3
20260906084342 74 304 0.0 0.0 0.00 0.00 0.00 98 1008.8
20260906083837 74 292 0.0 0.0 0.00 0.00 0.00 98 1008.9
20260906083332 74 294 0.0 0.0 0.00 0.00 0.00 98 1009.0
20260906082826 74 312 0.0 0.0 0.00 0.00 0.00 98 1009.1
20260906082322 74 311 0.0 0.0 0.00 0.00 0.00 97 1009.0
20260906081818 74 299 0.0 0.0 0.00 0.00 0.00 97 1009.1
20260906081313 74 305 0.0 0.0 0.00 0.00 0.00 97 1009.2
20260906080809 75 305 0.0 0.0 0.00 0.00 0.00 97 1008.8
20260906080305 75 296 0.0 0.0 0.00 0.00 0.00 97 1009.0
20260906075805 75 301 0.0 0.0 0.00 0.00 0.00 96 1008.9
20260906075306 75 312 0.0 0.0 0.00 0.00 0.00 96 1008.8
20260906074800 75 300 0.0 0.0 0.00 0.00 0.00 96 1008.7
20260906074259 75 306 0.0 0.0 0.00 0.00 0.00 97 1008.8
20260906073758 75 315 0.0 0.0 0.00 0.00 0.00 97 1008.6
20260906073253 75 303 0.0 0.0 0.00 0.00 0.00 97 1008.7
20260906072749 75 321 0.0 0.0 0.00 0.00 0.00 97 1008.7
20260906072245 75 314 0.0 0.0 0.00 0.00 0.00 97 1008.9
20260906071741 76 313 0.0 0.0 0.00 0.00 0.00 97 1008.7
20260906071241 76 316 0.0 0.0 0.00 0.00 0.00 96 1009.0
20260906070737 76 304 0.0 0.0 0.00 0.00 0.00 96 1008.9
20260906070233 75 299 0.0 0.0 0.00 0.00 0.00 96 1009.2
20260906065732 76 299 0.0 0.0 0.00 0.00 0.00 96 1009.0
20260906065228 76 311 0.0 0.0 0.00 0.00 0.00 96 1009.4
20260906064723 76 333 0.0 0.0 0.00 0.00 0.00 96 1008.8
20260906064219 76 321 0.0 0.0 0.00 0.00 0.00 96 1008.9
20260906063714 77 308 0.0 0.0 0.00 0.00 0.00 96 1009.1
20260906063209 76 316 0.0 0.0 0.00 0.00 0.00 95 1009.3
20260906062705 76 298 0.0 0.0 0.00 0.00 0.00 96 1009.1
20260906062203 77 299 0.0 0.0 0.00 0.00 0.00 96 1009.1
20260906061700 77 311 0.0 0.0 0.00 0.00 0.00 96 1009.0
20260906061155 77 312 0.0 0.0 0.00 0.00 0.00 96 1009.3
20260906060651 77 311 0.0 0.0 0.00 0.00 0.00 96 1009.6
20260906060148 77 310 0.0 0.0 0.00 0.00 0.00 96 1009.5
20260906055643 77 312 0.0 0.0 0.00 0.00 0.00 96 1009.4
20260906055138 77 304 0.0 0.0 0.00 0.00 0.00 95 1009.7
20260906054634 78 310 0.0 0.0 0.00 0.00 0.00 95 1009.6
20260906054129 78 311 0.0 0.0 0.00 0.00 0.00 95 1009.7
20260906053625 78 312 0.0 0.0 0.00 0.00 0.00 95 1009.7
20260906053120 78 318 0.0 0.0 0.00 0.00 0.00 94 1009.8
20260906052615 78 312 0.0 0.0 0.00 0.00 0.00 93 1010.2
20260906052107 78 308 0.0 0.0 0.00 0.00 0.00 93 1009.9
20260906051602 78 309 0.0 0.0 0.00 0.00 0.00 94 1010.2
20260906051057 78 313 0.0 0.0 0.00 0.00 0.00 94 1010.1
20260906050552 78 302 0.0 0.0 0.00 0.00 0.00 94 1010.1
20260906050048 78 309 0.0 0.0 0.00 0.00 0.00 95 1010.3
20260906045546 77 310 0.0 0.0 0.00 0.00 0.00 96 1010.1
20260906045042 77 312 0.0 0.0 0.00 0.00 0.00 96 1010.1
20260906044537 77 310 0.0 0.0 0.00 0.00 0.00 96 1009.7
20260906044032 77 298 0.0 0.0 0.00 0.00 0.00 96 1009.5
20260906043528 77 299 0.0 0.0 0.00 0.00 0.00 96 1009.4
20260906043024 78 285 0.0 0.0 0.00 0.00 0.00 96 1009.4
20260906042522 78 292 0.0 0.0 0.00 0.00 0.00 94 1009.4
20260906042018 78 311 0.0 0.0 0.00 0.00 0.00 95 1009.4
20260906041514 78 311 0.0 0.0 0.00 0.00 0.00 94 1009.4
20260906041014 78 287 0.0 0.0 0.00 0.00 0.00 94 1009.7
20260906040509 78 300 0.0 0.0 0.00 0.00 0.00 94 1009.5
20260906040004 78 328 0.0 0.0 0.00 0.00 0.00 91 1009.4
20260906035458 79 336 0.0 0.0 0.00 0.00 0.00 91 1009.6
20260906034949 79 336 0.0 0.0 0.00 0.00 0.00 91 1009.5
20260906034449 79 335 0.0 0.0 0.00 0.00 0.00 89 1009.7
20260906033944 80 334 0.0 0.0 0.00 0.00 0.00 89 1009.7
20260906033438 80 336 0.0 0.0 0.00 0.00 0.00 88 1009.7
20260906032928 80 332 0.0 0.0 0.00 0.00 0.00 87 1009.8
20260906032425 80 331 0.0 0.0 0.00 0.00 0.00 88 1009.8
20260906031919 80 341 0.0 0.0 0.00 0.00 0.00 86 1009.7
20260906031414 80 331 0.0 0.0 0.00 0.00 0.00 86 1010.0
20260906030909 80 323 0.0 0.0 0.00 0.00 0.00 89 1009.4
20260906030404 80 310 0.0 0.0 0.00 0.00 0.00 89 1009.3
20260906025858 80 331 0.0 0.0 0.00 0.00 0.00 88 1009.5
20260906025353 80 337 0.0 0.0 0.00 0.00 0.00 87 1009.6
20260906024851 80 337 0.0 0.0 0.00 0.00 0.00 87 1009.6
20260906024351 80 328 0.0 0.0 0.00 0.00 0.00 86 1009.7
20260906023846 80 345 0.0 0.0 0.00 0.00 0.00 88 1009.8
20260906023342 80 350 0.0 0.0 0.00 0.00 0.00 88 1009.9
20260906022837 81 354 0.0 0.0 0.00 0.00 0.00 87 1009.9
20260906022332 81 353 0.0 0.0 0.00 0.00 0.00 88 1010.0
20260906021828 82 353 0.0 0.0 0.00 0.00 0.00 87 1010.1
20260906021327 82 354 0.0 0.0 0.00 0.00 0.00 84 1009.9
20260906020822 82 297 0.0 0.0 0.00 0.00 0.00 82 1009.7
20260906020321 83 269 0.0 0.0 0.00 0.00 0.00 82 1009.9
20260906015816 83 273 0.0 0.0 0.00 0.00 0.00 81 1009.7
20260906015314 83 294 0.0 0.0 0.00 0.00 0.00 80 1010.0
20260906014809 83 301 0.0 0.0 0.00 0.00 0.00 80 1009.8
20260906014305 83 304 0.0 0.0 0.00 0.00 0.00 81 1010.1
20260906013800 83 318 0.9 0.9 0.00 0.00 0.00 82 1010.1
20260906013255 83 327 0.9 1.7 0.00 0.00 0.00 84 1010.1
20260906012751 82 299 0.0 0.0 0.00 0.00 0.00 86 1009.6
20260906012246 81 322 0.0 0.0 0.00 0.00 0.00 89 1009.8
20260906011741 81 312 0.0 0.0 0.00 0.00 0.00 91 1009.6
20260906011241 82 286 0.0 0.0 0.00 0.00 0.00 92 1009.4
20260906010736 82 313 0.0 0.0 0.00 0.00 0.00 92 1009.3
20260906010232 82 309 0.0 0.0 0.00 0.00 0.00 91 1009.4
20260906005727 82 306 0.0 0.0 0.00 0.00 0.00 90 1009.3
20260906005220 82 297 0.0 0.0 0.00 0.00 0.00 90 1008.9
20260906004720 82 308 0.0 0.0 0.00 0.00 0.00 90 1009.0
20260906004215 83 299 0.0 0.0 0.00 0.00 0.00 89 1009.0
20260906003710 82 290 0.0 0.0 0.00 0.00 0.00 89 1008.9
20260906003206 83 282 0.0 0.0 0.00 0.00 0.00 89 1008.8
20260906002706 83 287 0.0 0.0 0.00 0.00 0.00 89 1008.8
20260906002200 83 303 0.0 0.0 0.00 0.00 0.00 88 1008.9
20260906001656 83 313 0.0 0.0 0.00 0.00 0.00 87 1008.6
20260906001155 84 290 0.0 0.0 0.00 0.00 0.00 86 1008.6
20260906000651 84 276 0.0 0.0 0.00 0.00 0.00 86 1008.6
20260906000147 84 330 0.0 0.0 0.00 0.00 0.00 85 1008.5
20260905235645 85 300 0.0 0.0 0.00 0.00 0.00 83 1008.5
20260905235141 85 299 0.0 0.0 0.00 0.00 0.00 84 1008.2
20260905234636 85 270 0.0 0.0 0.00 0.00 0.00 82 1008.5
20260905234131 85 277 0.0 0.0 0.00 0.00 0.00 84 1008.7
20260905233626 86 298 0.0 0.0 0.00 0.00 0.00 83 1008.7
20260905233120 86 304 0.0 0.0 0.00 0.00 0.00 81 1008.7
20260905232616 86 294 0.0 0.0 0.00 0.00 0.00 81 1008.6
20260905232112 86 274 0.0 0.0 0.00 0.00 0.00 80 1008.6
20260905231612 86 288 0.0 0.0 0.00 0.00 0.00 79 1008.4
20260905231108 87 291 0.0 0.0 0.00 0.00 0.00 79 1008.6
20260905230603 87 258 0.9 0.9 0.00 0.00 0.00 77 1008.6
20260905230101 87 239 1.7 1.7 0.00 0.00 0.00 77 1008.6
20260905225555 87 247 0.9 0.9 0.00 0.00 0.00 76 1008.6
20260905225050 88 237 0.0 0.0 0.00 0.00 0.00 76 1008.5
20260905224550 88 296 0.0 0.0 0.00 0.00 0.00 76 1008.7
20260905224049 89 290 0.0 0.0 0.00 0.00 0.00 76 1008.6
20260905223547 89 261 0.9 0.9 0.00 0.00 0.00 74 1008.7
20260905223043 89 288 0.9 0.9 0.00 0.00 0.00 75 1008.9
20260905222543 90 275 1.7 2.6 0.00 0.00 0.00 73 1008.6
20260905222038 90 279 0.9 0.9 0.00 0.00 0.00 74 1008.5
20260905221534 90 252 2.6 4.3 0.00 0.00 0.00 73 1008.5
20260905221030 90 220 0.0 0.9 0.00 0.00 0.00 73 1008.6
20260905220526 91 295 0.0 0.0 0.00 0.00 0.00 72 1008.6
20260905220022 91 266 0.0 0.9 0.00 0.00 0.00 72 1008.8
20260905215516 91 259 0.9 1.7 0.00 0.00 0.00 71 1008.6
20260905215012 91 192 0.0 0.9 0.00 0.00 0.00 72 1008.5
20260905214507 92 289 0.9 1.7 0.00 0.00 0.00 70 1008.5
20260905214002 91 277 0.9 1.7 0.00 0.00 0.00 71 1008.3
20260905213458 92 261 0.9 1.7 0.00 0.00 0.00 70 1008.7
20260905212953 92 246 1.7 1.7 0.00 0.00 0.00 69 1008.3
20260905212447 93 280 0.0 0.0 0.00 0.00 0.00 67 1008.4
20260905211946 94 279 0.9 0.9 0.00 0.00 0.00 67 1008.6
20260905211442 94 282 0.0 0.0 0.00 0.00 0.00 66 1008.3
20260905210938 94 265 0.0 0.0 0.00 0.00 0.00 66 1008.6
20260905210433 95 289 0.0 0.0 0.00 0.00 0.00 64 1008.5
20260905205932 95 262 0.0 0.9 0.00 0.00 0.00 63 1008.3
20260905205427 95 265 0.9 1.7 0.00 0.00 0.00 63 1008.4
20260905204926 95 265 0.0 0.0 0.00 0.00 0.00 62 1008.3
20260905204422 95 263 0.0 0.0 0.00 0.00 0.00 60 1008.3
20260905203921 95 267 0.0 0.0 0.00 0.00 0.00 61 1008.3
20260905203417 94 254 0.0 0.0 0.00 0.00 0.00 61 1008.3
20260905202912 94 264 0.0 0.0 0.00 0.00 0.00 63 1008.3
20260905202407 94 254 1.7 1.7 0.00 0.00 0.00 62 1008.5
20260905201903 93 281 0.0 0.0 0.00 0.00 0.00 64 1008.5
20260905201357 94 316 0.0 0.0 0.00 0.00 0.00 64 1008.6
20260905200852 93 269 0.0 0.0 0.00 0.00 0.00 63 1008.7
20260905200348 93 246 0.0 0.0 0.00 0.00 0.00 67 1008.9
20260905195846 93 290 0.0 0.0 0.00 0.00 0.00 65 1009.0
20260905195341 93 290 0.0 0.0 0.00 0.00 0.00 65 1009.0
20260905194836 93 264 0.0 0.0 0.00 0.00 0.00 62 1009.3
20260905194331 94 294 0.0 0.0 0.00 0.00 0.00 63 1009.3
20260905193830 95 278 0.0 0.0 0.00 0.00 0.00 58 1009.3
20260905193325 96 277 0.0 0.0 0.00 0.00 0.00 58 1009.6
20260905192821 95 266 0.0 0.0 0.00 0.00 0.00 60 1009.5
20260905192317 95 299 0.9 1.7 0.00 0.00 0.00 59 1009.5
20260905191816 96 287 0.0 0.0 0.00 0.00 0.00 58 1009.5
20260905191314 96 287 0.0 0.0 0.00 0.00 0.00 58 1010.0
20260905190813 96 236 0.9 2.6 0.00 0.00 0.00 58 1009.9
20260905190307 96 236 0.9 2.6 0.00 0.00 0.00 58 1009.5
20260905185806 94 270 0.0 0.0 0.00 0.00 0.00 63 1009.8
20260905185301 95 268 0.9 1.7 0.00 0.00 0.00 59 1009.6
20260905184800 94 278 0.0 0.0 0.00 0.00 0.00 61 1009.5
20260905184254 95 343 1.7 1.7 0.00 0.00 0.00 60 1009.5
20260905183753 94 320 0.0 0.0 0.00 0.00 0.00 62 1009.7
20260905183249 95 300 0.9 0.9 0.00 0.00 0.00 61 1009.7
20260905182748 94 260 0.0 0.9 0.00 0.00 0.00 68 1010.0
20260905182248 94 256 1.7 1.7 0.00 0.00 0.00 63 1010.1
20260905181743 94 263 0.0 0.0 0.00 0.00 0.00 64 1010.2
20260905181243 93 259 0.0 0.9 0.00 0.00 0.00 66 1010.2
20260905180737 93 251 1.7 2.6 0.00 0.00 0.00 65 1010.3
20260905180232 94 245 4.3 5.2 0.00 0.00 0.00 65 1010.4
20260905175727 93 253 0.0 0.0 0.00 0.00 0.00 66 1010.3
20260905175222 93 259 1.7 1.7 0.00 0.00 0.00 69 1010.6
20260905174716 93 279 0.0 0.0 0.00 0.00 0.00 67 1010.8
20260905174212 93 279 0.0 0.0 0.00 0.00 0.00 67 1010.8
20260905173709 93 268 0.9 0.9 0.00 0.00 0.00 68 1011.0
20260905173204 93 229 0.9 1.7 0.00 0.00 0.00 69 1010.7
20260905172703 93 256 0.9 1.7 0.00 0.00 0.00 71 1011.0
20260905172157 92 269 0.9 1.7 0.00 0.00 0.00 71 1011.0
20260905171653 92 230 0.9 0.9 0.00 0.00 0.00 70 1010.9
20260905171149 92 274 0.0 0.9 0.00 0.00 0.00 71 1011.0
20260905170646 91 286 0.0 0.0 0.00 0.00 0.00 72 1011.2
20260905170141 91 280 0.0 0.0 0.00 0.00 0.00 75 1011.3
20260905165640 90 149 1.7 1.7 0.00 0.00 0.00 74 1011.2
20260905165136 90 264 1.7 2.6 0.00 0.00 0.00 76 1011.3
20260905164631 90 253 2.6 2.6 0.00 0.00 0.00 75 1011.5
20260905164130 89 292 0.9 0.9 0.00 0.00 0.00 77 1011.5
20260905163627 89 259 0.9 1.7 0.00 0.00 0.00 78 1011.8
20260905163123 89 252 0.0 0.0 0.00 0.00 0.00 78 1011.8